User: anonymous   Login
Location: Unspecified
(0.0000°N, 0.0000°E)
Time: 03:35:05
(UTC+00:00)
Language:

Landsat 2 - Orbit

View from above orbital plane
View from above orbital plane
View from above satellite
View from above satellite

Ground track
Ground track

The orbit data is extracted from the following two-line orbital elements,

1 07615U 75004A   18023.52302354 -.00000044  00000-0 -18755-5 0  9994
2 07615  98.7814  52.7749 0009370 131.8085 228.3880 13.96658548191307
Epoch (UTC): 23 January 2018 12:33:09
Eccentricity: 0.0009370
inclination: 98.7814°
perigee height: 898 km
apogee height: 912 km
right ascension of ascending node: 52.7749°
argument of perigee: 131.8085°
revolutions per day: 13.96658548
mean anomaly at epoch: 228.3880°
orbit number at epoch: 19130

The dashed part of the orbit path shows where the satellite is in the earth's shadow,  

DLR